[[{"header":{"parameterUnit":"m.s-1","parameterCategory":1,"la1":30.2991,"la2":30.254,"lo1":-89.0895,"lo2":-89.0444,"dy":0.0017,"dx":0.0017,"nx":28,"ny":28,"refTime":"2023-09-06T03:00:00:Z","depth":0,"parameterNumber":2,"parameterNumberName":"U-component_of_WINDS"},"data":[0,0,0,0,0,0,0,0,0,0,0,0,0,0,0,0,0,0,0,0,0,0,0,0,0,0,0,0,0,0,0,0,0,0,0,0,0,0,0,0,0,0,0,0,0,0,0,0,0,0,0,0,0,0,0,0,0,0,2.8421,2.8421,0,2.849,2.8491,2.8492,2.8465,2.8463,2.8462,2.846,2.8529,2.8533,2.8536,0,0,0,0,0,0,0,0,0,0,0,0,0,2.8259,2.8262,2.842,2.8421,2.8422,2.849,2.8491,2.8492,2.8465,2.8463,2.8461,2.8459,2.8528,2.8532,2.8536,0,0,0,0,0,0,0,0,0,0,0,0,0,2.8329,2.8263,2.842,2.8417,2.8417,2.849,2.8491,2.8492,2.8466,2.8463,2.8461,2.8459,2.8527,2.8532,2.8537,2.8616,0,0,2.8552,2.8554,0,0,0,0,0,0,0,0,2.8325,2.8335,2.8417,2.8417,2.8418,2.8467,2.846,2.8534,2.8466,2.8447,2.846,2.8457,2.851,2.8516,2.8535,2.8619,2.8622,2.8552,2.8555,2.8558,2.8559,0,0,0,0,0,0,0,2.832,2.8332,2.8448,2.8418,2.8419,2.8411,2.8418,2.8474,2.8491,2.8449,2.8447,2.8456,2.851,2.853,2.8536,2.8623,2.8552,2.8557,2.856,2.8562,2.8772,2.8774,0,0,0,0,0,0,2.8316,2.8328,2.8446,2.845,2.8365,2.8415,2.8424,2.8453,2.8491,2.8494,2.8458,2.8454,2.8523,2.853,2.8538,2.8631,2.8558,2.8562,2.8565,2.8769,2.8773,2.8775,0,0,0,0,0,0,2.8313,2.8327,2.8443,2.8389,2.8403,2.8421,2.8454,2.8456,2.8476,2.8498,2.85,2.8475,2.8521,2.8531,2.8596,2.8633,2.8565,2.8569,2.8766,2.877,2.8774,2.8818,0,0,0,0,0,0,2.8308,2.8326,2.8357,2.839,2.8406,2.8501,2.8457,2.8459,2.8485,2.8481,2.8514,2.8518,2.852,2.8589,2.8601,2.8638,2.8573,2.8763,2.8768,2.8773,2.8813,2.8822,2.8831,0,0,0,0,0,2.8302,2.8367,2.8359,2.8373,2.8446,2.8503,2.8512,2.8514,2.8488,2.8519,2.8532,2.8517,2.8627,2.8596,2.8609,2.8649,2.8761,2.8767,2.8772,2.8809,2.8821,2.883,0,0,0,0,0,0,2.8338,2.8371,2.8363,2.844,2.8469,2.8498,2.8537,2.8527,2.8564,2.8558,2.8559,2.8566,2.8632,2.8647,2.8612,2.8725,2.869,2.8699,2.8713,2.8724,2.8733,2.8727,2.8577,0,0,0,0,0,2.8355,2.84,2.8426,2.8491,2.8507,2.852,2.8545,2.8544,2.8573,2.8585,2.8604,2.8632,2.8673,2.87,2.8739,2.8816,2.8821,2.8849,2.8858,2.8865,2.8872,2.891,2.8922,2.8794,2.8794,2.8794,0,0,2.839,2.8414,2.8442,2.8499,2.8521,2.8566,2.853,2.858,2.8612,2.8593,2.8654,2.8668,2.87,2.877,2.8802,2.8785,2.8909,2.8873,2.8878,2.8881,2.8917,2.8929,2.894,2.8798,2.8798,2.8797,0,0,2.8476,2.85,2.8555,2.8578,2.8613,2.862,2.8634,2.8665,2.8673,2.8736,2.8721,2.8759,2.883,2.8852,2.8873,2.8965,2.8951,2.8978,2.9024,2.9061,2.9071,2.9079,2.9109,2.912,2.8985,2.8986,2.8986,0,2.8515,2.8583,2.8585,2.8635,2.8659,2.8644,2.8698,2.8721,2.8766,2.8782,2.8762,2.8849,2.887,2.8943,2.8965,2.8984,2.8997,2.8973,2.9069,2.9078,2.9086,2.9115,2.9126,2.8988,2.8988,2.8988,2.8988,0,2.8627,2.8674,2.8714,2.8758,2.8787,2.8839,2.8848,2.8877,2.8873,2.8882,2.8943,2.8968,2.901,2.9028,2.9025,2.91,2.9087,2.9069,2.9033,2.9101,2.9127,2.9139,2.8992,2.8991,2.8991,2.899,0,0,2.8737,2.878,2.8794,2.8812,2.8849,2.8884,2.8935,2.8976,2.8999,2.9031,2.9071,2.9131,2.9113,2.9136,2.9136,2.9169,2.9236,2.9146,2.9146,2.9159,2.9316,2.9328,2.934,2.9228,2.923,2.9232,2.9312,0,2.8823,2.8912,2.8915,2.8995,2.9037,2.9022,2.9066,2.9091,2.9101,2.9137,2.9147,2.9188,2.9164,2.9177,2.9209,2.9221,2.9267,2.9216,2.9262,2.9264,2.9252,2.9355,2.9368,2.9443,2.9323,2.9325,2.9326,0,2.8935,2.897,2.9054,2.9082,2.9099,2.9138,2.9175,2.921,2.9238,2.9243,2.9268,2.9262,2.9311,2.9275,2.9341,2.9305,2.9325,2.9333,2.9336,2.9338,2.9297,2.9356,2.9467,2.9477,2.9343,2.9342,2.934,0,2.9003,2.907,2.9129,2.9145,2.918,2.9207,2.9222,2.9248,2.9272,2.9304,2.9318,2.9356,2.9376,2.9404,2.9407,2.9381,2.9472,2.9437,2.9475,2.9474,2.9492,2.9491,2.9604,2.951,2.951,2.951,2.951,0,2.9097,2.9148,2.9159,2.9195,2.9251,2.9253,2.9308,2.9321,2.9344,2.938,2.9371,2.9405,2.9408,2.9443,2.9446,2.9498,2.9508,2.9511,2.951,2.951,2.9509,2.9521,2.9515,2.9513,2.9512,2.9511,2.9511,0,2.9181,2.919,2.9252,2.928,2.9287,2.9327,2.935,2.9383,2.9391,2.9437,2.9448,2.9461,2.9501,2.9508,2.9555,2.9557,2.9618,2.9614,2.9609,2.9607,2.9643,2.9638,2.9766,2.9781,2.968,2.9681,2.9681,0,2.9239,2.9278,2.9309,2.9333,2.9349,2.9388,2.9412,2.9415,2.944,2.9474,2.9502,2.9541,2.9572,2.9636,2.9649,2.9684,2.9679,2.9721,2.9684,2.9681,2.9675,2.9672,2.9674,2.9727,2.9728,2.9729,2.973,0,2.934,2.9342,2.9377,2.9414,2.9443,2.9472,2.9499,2.9519,2.9525,2.9553,2.9594,2.9618,2.9666,2.9703,2.9738,2.9752,2.9741,2.9742,2.9752,2.975,2.9744,2.9745,2.9625,2.9738,2.9738,2.9737,2.9736,2.9736,2.941,2.9443,2.9469,2.9508,2.9529,2.9554,2.9585,2.9597,2.9632,2.9671,2.967,2.9714,2.9738,2.9784,2.98,2.9833,2.9819,2.9835,2.9838,2.9841,2.9843,2.9741,2.984,2.984,2.9839,2.9839,2.9839,0,2.9507,2.9523,2.9559,2.9597,2.9627,2.9616,2.9645,2.967,2.9709,2.9733,2.9763,2.9809,2.9845,2.986,2.9895,2.9918,2.9914,2.9927,2.9924,2.9926,2.9855,2.9841,2.993,2.9929,2.9929,2.9929,2.9929,2.9929,2.9561,2.9615,2.962,2.9683,2.9699,2.9742,2.9759,2.9781,2.98,2.9851,2.9881,2.9891,2.991,2.9946,2.9978,2.9981,2.9993,3.0008,3.0009,2.9941,2.9932,2.9923,2.991,3.0011,3.0011,3.0077,3.0078,3.0078]},{"header":{"parameterUnit":"m.s-1","parameterCategory":1,"la1":30.2991,"la2":30.254,"lo1":-89.0895,"lo2":-89.0444,"dy":0.0017,"dx":0.0017,"nx":28,"ny":28,"refTime":"2023-09-06T03:00:00:Z","depth":0,"parameterNumber":3,"parameterNumberName":"V-component_of_WINDS"},"data":[0,0,0,0,0,0,0,0,0,0,0,0,0,0,0,0,0,0,0,0,0,0,0,0,0,0,0,0,0,0,0,0,0,0,0,0,0,0,0,0,0,0,0,0,0,0,0,0,0,0,0,0,0,0,0,0,0,0,0.9849,0.9849,0,0.9913,0.9914,0.9915,0.9904,0.9903,0.9902,0.9901,0.9967,0.997,0.9972,0,0,0,0,0,0,0,0,0,0,0,0,0,0.9714,0.9717,0.9848,0.9849,0.985,0.9913,0.9914,0.9915,0.9905,0.9903,0.9902,0.9901,0.9966,0.9969,0.9973,0,0,0,0,0,0,0,0,0,0,0,0,0,0.9775,0.9718,0.9848,0.9853,0.9854,0.9913,0.9914,0.9915,0.9905,0.9903,0.9902,0.99,0.9965,0.9969,0.9973,1.0032,0,0,0.9986,0.9988,0,0,0,0,0,0,0,0,0.9772,0.978,0.9851,0.9852,0.9854,0.9899,0.9891,0.9954,0.9905,0.9885,0.9901,0.9899,0.9946,0.9951,0.9967,1.0035,1.0038,0.9986,0.9989,0.9991,0.9992,0,0,0,0,0,0,0,0.9768,0.9777,0.9874,0.9852,0.9854,0.9851,0.9857,0.9903,0.9924,0.9887,0.9886,0.9894,0.9946,0.9963,0.9969,1.0039,0.9986,0.999,0.9992,0.9994,1.0156,1.0158,0,0,0,0,0,0,0.9762,0.9774,0.9872,0.9876,0.9808,0.9854,0.9862,0.9886,0.9924,0.9928,0.9896,0.9893,0.9957,0.9964,0.9971,1.0041,0.9991,0.9994,0.9997,1.0154,1.0156,1.0158,0,0,0,0,0,0,0.9759,0.9771,0.9869,0.9825,0.9837,0.9858,0.9886,0.9888,0.9905,0.993,0.9934,0.9909,0.9956,0.9965,1.0016,1.0043,0.9996,1.0,1.0152,1.0155,1.0157,1.0182,0,0,0,0,0,0,0.9756,0.977,0.9794,0.9825,0.9839,0.9915,0.9887,0.9891,0.9913,0.991,0.9944,0.9948,0.9955,1.001,1.0021,1.0048,1.0003,1.015,1.0153,1.0156,1.0179,1.0185,1.0191,0,0,0,0,0,0.9751,0.9798,0.9795,0.9807,0.9869,0.9916,0.9924,0.9932,0.9915,0.9938,0.9953,0.9947,1.0038,1.0016,1.0027,1.0056,1.0148,1.0152,1.0156,1.0176,1.0184,1.0191,0,0,0,0,0,0,0.977,0.9803,0.9799,0.9859,0.9885,0.9914,0.9944,0.994,0.9972,0.9969,0.9977,0.9984,1.0036,1.0051,1.0025,1.0114,1.0091,1.0097,1.0102,1.011,1.0115,1.0111,1.0007,0,0,0,0,0,0.9781,0.9817,0.9843,0.9893,0.9906,0.9923,0.9944,0.9947,0.9974,0.9986,1.0005,1.0031,1.0066,1.0089,1.0122,1.0181,1.0187,1.0206,1.0212,1.0217,1.0222,1.0253,1.0261,1.0172,1.0171,1.0171,0,0,0.9804,0.9826,0.9849,0.9897,0.9918,0.9954,0.9932,0.9972,0.9999,0.9992,1.0041,1.0056,1.0086,1.0141,1.0166,1.0155,1.0248,1.0222,1.0226,1.0229,1.0258,1.0266,1.0274,1.0174,1.0174,1.0173,0,0,0.9865,0.9886,0.9929,0.9949,0.998,0.9991,1.0001,1.0031,1.004,1.009,1.0085,1.0116,1.0176,1.0197,1.0215,1.0281,1.0275,1.0292,1.0322,1.0352,1.0359,1.0365,1.0387,1.0395,1.0297,1.0297,1.0297,0,0.989,0.9945,0.9951,0.9991,1.0012,1.0006,1.0049,1.0068,1.0109,1.0123,1.011,1.0183,1.0203,1.0262,1.0278,1.0293,1.0304,1.0288,1.0357,1.0364,1.0369,1.0391,1.0399,1.0299,1.0299,1.0298,1.0298,0,0.9973,1.0011,1.0042,1.008,1.0104,1.0145,1.0157,1.0181,1.0181,1.0192,1.0242,1.0265,1.0302,1.0316,1.0318,1.0374,1.0366,1.0355,1.0332,1.038,1.04,1.0408,1.0301,1.0301,1.03,1.03,0,0,1.005,1.0089,1.01,1.0117,1.0149,1.0178,1.0218,1.0254,1.0273,1.0301,1.0333,1.0383,1.0372,1.0393,1.0396,1.0422,1.0471,1.0408,1.0408,1.0418,1.0533,1.0541,1.055,1.0467,1.0469,1.047,1.053,0,1.0113,1.0183,1.0189,1.0252,1.0286,1.028,1.0314,1.0338,1.0349,1.0378,1.039,1.0425,1.0408,1.0421,1.0446,1.046,1.0494,1.0455,1.0497,1.0498,1.0489,1.0561,1.057,1.0626,1.0538,1.0539,1.054,0,1.0197,1.0225,1.0292,1.0317,1.0332,1.0363,1.0395,1.0424,1.0449,1.0455,1.0477,1.0476,1.0516,1.0491,1.0544,1.0518,1.0535,1.0544,1.0546,1.055,1.0522,1.0566,1.0644,1.0652,1.0553,1.0552,1.0551,0,1.0244,1.03,1.0346,1.036,1.0392,1.0413,1.0427,1.0451,1.0471,1.0499,1.0512,1.0544,1.0561,1.0586,1.0593,1.0574,1.0646,1.0622,1.0651,1.0651,1.0667,1.0665,1.0747,1.0678,1.0678,1.0678,1.0678,0,1.0314,1.0355,1.0367,1.0396,1.044,1.0446,1.049,1.0502,1.0523,1.0553,1.055,1.0578,1.0586,1.0615,1.0621,1.0663,1.0671,1.0676,1.0677,1.0677,1.0676,1.0688,1.0684,1.068,1.068,1.0679,1.0679,0,1.0375,1.0385,1.0435,1.046,1.0467,1.0499,1.052,1.0547,1.0556,1.0594,1.0603,1.0618,1.0652,1.0661,1.0702,1.0706,1.0756,1.0753,1.0747,1.0747,1.0775,1.0772,1.0868,1.088,1.0803,1.0804,1.0804,0,1.0419,1.045,1.0477,1.0497,1.0512,1.0544,1.0564,1.057,1.0591,1.0621,1.0643,1.0677,1.0704,1.0758,1.0772,1.0802,1.08,1.0831,1.0805,1.0802,1.08,1.0797,1.08,1.0837,1.0837,1.0838,1.0839,0,1.0495,1.0498,1.0528,1.0558,1.0582,1.0607,1.063,1.0646,1.0655,1.0679,1.0713,1.0734,1.0774,1.0807,1.0837,1.0851,1.0846,1.0847,1.0855,1.0854,1.0849,1.0851,1.076,1.0845,1.0844,1.0844,1.0843,1.0843,1.0549,1.0575,1.0598,1.063,1.0648,1.0669,1.0695,1.0707,1.0736,1.0769,1.0771,1.0807,1.0829,1.087,1.0885,1.0913,1.0903,1.0916,1.0919,1.0921,1.0923,1.0844,1.0918,1.0918,1.0918,1.0918,1.0918,0,1.0624,1.0638,1.0667,1.0699,1.0724,1.0717,1.0742,1.0763,1.0795,1.0816,1.0842,1.088,1.0911,1.0927,1.0957,1.0976,1.0975,1.0984,1.0983,1.0985,1.093,1.092,1.0985,1.0985,1.0985,1.0985,1.0985,1.0985,1.0666,1.0709,1.0715,1.0766,1.078,1.0816,1.083,1.0849,1.0866,1.0909,1.0934,1.0944,1.0962,1.0993,1.1021,1.1024,1.1035,1.1046,1.1048,1.0996,1.099,1.0983,1.0973,1.1048,1.1048,1.11,1.1101,1.1101]}]]